Location: Focicchia
(42.2496°N, 9.2935°E)
Time: 13:19:47
(UTC+00:00)

CZ-2D R/B - Pass Details

Date: 07 June 2020
Orbit: 791 x 845 km, 98.7° (Epoch: 15 July)

Event Time Altitude Azimuth Distance (km) Brightness Sun altitude
Rises 00:26:05 0° 21° (NNE) 3,304 6.7 -23.3°
Reaches altitude 10° 00:28:34 10° 29° (NNE) 2,367 5.6 -23.2°
Maximum altitude 00:33:27 40° 98° (E) 1,164 2.9 -22.9°
Enters shadow 00:35:03 32° 137° (SE) 1,346 3.0 -22.8°
